[[{"header":{"parameterUnit":"m.s-1","parameterCategory":1,"la1":30.2991,"la2":30.254,"lo1":-89.0895,"lo2":-89.0444,"dy":0.0017,"dx":0.0017,"nx":28,"ny":28,"refTime":"2026-01-09T09:00:00:Z","depth":0,"parameterNumber":2,"parameterNumberName":"U-component_of_WINDS"},"data":[0,0,0,0,0,0,0,0,0,0,0,0,0,0,0,0,0,0,0,0,0,0,0,0,0,0,0,0,0,0,0,0,0,0,0,0,0,0,0,0,0,0,0,0,0,0,0,0,0,0,0,0,0,0,0,0,0,0,-1.698,-1.698,0,-1.6988,-1.6988,-1.6988,-1.697,-1.697,-1.6969,-1.6969,-1.6976,-1.6977,-1.6977,0,0,0,0,0,0,0,0,0,0,0,0,0,-1.695,-1.6951,-1.698,-1.698,-1.698,-1.6988,-1.6988,-1.6988,-1.697,-1.697,-1.6969,-1.6968,-1.6976,-1.6977,-1.6977,0,0,0,0,0,0,0,0,0,0,0,0,0,-1.6961,-1.6951,-1.698,-1.6973,-1.6972,-1.6987,-1.6988,-1.6988,-1.6971,-1.697,-1.6969,-1.6968,-1.6976,-1.6977,-1.6978,-1.7001,0,0,-1.6981,-1.6981,0,0,0,0,0,0,0,0,-1.6961,-1.6962,-1.6974,-1.6973,-1.6972,-1.6977,-1.698,-1.6992,-1.6971,-1.6971,-1.6969,-1.6968,-1.6977,-1.6978,-1.6981,-1.7001,-1.7001,-1.6981,-1.6982,-1.6982,-1.6982,0,0,0,0,0,0,0,-1.696,-1.6962,-1.6983,-1.6974,-1.6973,-1.6969,-1.6969,-1.6982,-1.6979,-1.6971,-1.697,-1.6971,-1.6977,-1.698,-1.6981,-1.7001,-1.6981,-1.6982,-1.6982,-1.6983,-1.704,-1.704,0,0,0,0,0,0,-1.696,-1.6961,-1.6983,-1.6983,-1.6964,-1.697,-1.6971,-1.6976,-1.6978,-1.6978,-1.6972,-1.697,-1.6979,-1.698,-1.6981,-1.7007,-1.6982,-1.6983,-1.6984,-1.7039,-1.704,-1.7041,0,0,0,0,0,0,-1.696,-1.6962,-1.6982,-1.6972,-1.6974,-1.6971,-1.6978,-1.6977,-1.6981,-1.6979,-1.6978,-1.6976,-1.6978,-1.698,-1.6996,-1.7007,-1.6983,-1.6984,-1.7038,-1.7039,-1.704,-1.706,0,0,0,0,0,0,-1.6959,-1.6962,-1.6971,-1.6972,-1.6975,-1.6997,-1.6979,-1.6978,-1.6982,-1.6981,-1.6983,-1.6982,-1.6978,-1.6994,-1.6997,-1.7008,-1.6985,-1.7037,-1.7038,-1.704,-1.7059,-1.7062,-1.7065,0,0,0,0,0,-1.6958,-1.6976,-1.6971,-1.6974,-1.6986,-1.6998,-1.6999,-1.6993,-1.6984,-1.6992,-1.6991,-1.6982,-1.7006,-1.6996,-1.6999,-1.7011,-1.7036,-1.7038,-1.704,-1.7057,-1.7061,-1.7065,0,0,0,0,0,0,-1.6976,-1.6977,-1.6971,-1.6991,-1.6994,-1.6995,-1.7005,-1.6998,-1.7005,-1.7003,-1.6996,-1.6996,-1.7013,-1.7014,-1.7003,-1.7033,-1.7019,-1.7022,-1.7031,-1.7036,-1.7039,-1.7038,-1.6986,0,0,0,0,0,-1.6983,-1.6993,-1.6992,-1.701,-1.7012,-1.7008,-1.7013,-1.7009,-1.7012,-1.7013,-1.7014,-1.7017,-1.7025,-1.7031,-1.7038,-1.7059,-1.7059,-1.7069,-1.7072,-1.7075,-1.7077,-1.7087,-1.7091,-1.7047,-1.7047,-1.7047,0,0,-1.6996,-1.6998,-1.7004,-1.7013,-1.7016,-1.7025,-1.701,-1.7021,-1.7028,-1.7015,-1.703,-1.703,-1.7034,-1.7052,-1.706,-1.7053,-1.7089,-1.7077,-1.708,-1.708,-1.7089,-1.7093,-1.7097,-1.7048,-1.7048,-1.7048,0,0,-1.7025,-1.7028,-1.7042,-1.7044,-1.7048,-1.7046,-1.7049,-1.7051,-1.705,-1.7065,-1.7055,-1.7064,-1.7078,-1.7081,-1.7084,-1.7114,-1.7106,-1.7117,-1.7133,-1.7143,-1.7147,-1.715,-1.7159,-1.7163,-1.7119,-1.7119,-1.7119,0,-1.7041,-1.7056,-1.705,-1.7062,-1.7066,-1.7055,-1.7069,-1.7072,-1.7078,-1.708,-1.7073,-1.709,-1.7092,-1.711,-1.7117,-1.7121,-1.7124,-1.7116,-1.7147,-1.715,-1.7152,-1.7161,-1.7165,-1.712,-1.712,-1.712,-1.712,0,-1.7074,-1.7085,-1.7096,-1.7101,-1.7107,-1.712,-1.7116,-1.7122,-1.7117,-1.7115,-1.713,-1.7132,-1.7139,-1.7143,-1.7139,-1.7161,-1.7156,-1.7148,-1.7134,-1.7158,-1.7166,-1.7169,-1.7122,-1.7121,-1.7121,-1.7121,0,0,-1.7114,-1.7117,-1.7121,-1.7123,-1.7126,-1.7134,-1.7146,-1.7153,-1.7158,-1.7163,-1.7172,-1.7185,-1.7177,-1.7181,-1.7176,-1.7185,-1.7207,-1.7176,-1.7176,-1.718,-1.723,-1.7235,-1.7239,-1.7203,-1.7203,-1.7204,-1.7229,0,-1.7142,-1.7162,-1.7158,-1.7178,-1.7187,-1.7177,-1.7187,-1.719,-1.7189,-1.7196,-1.7195,-1.7204,-1.7194,-1.7196,-1.7204,-1.7203,-1.7217,-1.7201,-1.721,-1.7211,-1.7208,-1.7244,-1.7249,-1.7273,-1.7232,-1.7233,-1.7233,0,-1.7176,-1.7182,-1.7203,-1.7204,-1.7207,-1.7217,-1.7222,-1.723,-1.7233,-1.7232,-1.7236,-1.723,-1.7241,-1.7228,-1.7244,-1.7233,-1.7237,-1.7237,-1.7238,-1.7237,-1.7222,-1.7242,-1.7281,-1.7284,-1.7239,-1.7238,-1.7238,0,-1.7201,-1.7214,-1.7228,-1.723,-1.7233,-1.7239,-1.724,-1.7243,-1.7247,-1.7252,-1.7255,-1.7262,-1.7265,-1.727,-1.7266,-1.7257,-1.7282,-1.7269,-1.728,-1.728,-1.7285,-1.7284,-1.7322,-1.729,-1.729,-1.729,-1.729,0,-1.7231,-1.7244,-1.7239,-1.7248,-1.7262,-1.7256,-1.727,-1.727,-1.7273,-1.7281,-1.7273,-1.7281,-1.7275,-1.7283,-1.728,-1.7292,-1.7294,-1.7293,-1.7292,-1.7293,-1.7293,-1.7294,-1.7291,-1.7291,-1.729,-1.729,-1.729,0,-1.7261,-1.7259,-1.7273,-1.7274,-1.7274,-1.7284,-1.7285,-1.7292,-1.7291,-1.7301,-1.7303,-1.7301,-1.7309,-1.7306,-1.7315,-1.7313,-1.7328,-1.7326,-1.7327,-1.7326,-1.7337,-1.7335,-1.7376,-1.738,-1.7346,-1.7347,-1.7347,0,-1.728,-1.7289,-1.7291,-1.7296,-1.7297,-1.7305,-1.731,-1.7305,-1.731,-1.7314,-1.7321,-1.7328,-1.7334,-1.7347,-1.7346,-1.7352,-1.7349,-1.7363,-1.735,-1.735,-1.7347,-1.7346,-1.7347,-1.7365,-1.7365,-1.7366,-1.7366,0,-1.7313,-1.7311,-1.7317,-1.7323,-1.7328,-1.7333,-1.7337,-1.7341,-1.7336,-1.7342,-1.735,-1.7354,-1.7363,-1.737,-1.7376,-1.7377,-1.737,-1.737,-1.7373,-1.7373,-1.7373,-1.7372,-1.7332,-1.7369,-1.7369,-1.7368,-1.7368,-1.7368,-1.7336,-1.7344,-1.7346,-1.7353,-1.7356,-1.7359,-1.7366,-1.7366,-1.7372,-1.7379,-1.7376,-1.7385,-1.7387,-1.7394,-1.7396,-1.7403,-1.7398,-1.7402,-1.7403,-1.7403,-1.7404,-1.7373,-1.7404,-1.7404,-1.7404,-1.7404,-1.7404,0,-1.7367,-1.7368,-1.7375,-1.738,-1.7386,-1.738,-1.7384,-1.7389,-1.7397,-1.74,-1.7405,-1.7414,-1.7421,-1.7421,-1.7427,-1.7432,-1.7429,-1.7434,-1.7433,-1.7433,-1.7409,-1.7406,-1.7436,-1.7436,-1.7436,-1.7436,-1.7436,-1.7436,-1.7384,-1.7396,-1.7395,-1.7408,-1.7409,-1.7417,-1.742,-1.7423,-1.7425,-1.7435,-1.7441,-1.7441,-1.7442,-1.7448,-1.7454,-1.7454,-1.7456,-1.7461,-1.746,-1.7438,-1.7434,-1.7431,-1.7428,-1.7462,-1.7462,-1.7482,-1.7483,-1.7483]},{"header":{"parameterUnit":"m.s-1","parameterCategory":1,"la1":30.2991,"la2":30.254,"lo1":-89.0895,"lo2":-89.0444,"dy":0.0017,"dx":0.0017,"nx":28,"ny":28,"refTime":"2026-01-09T09:00:00:Z","depth":0,"parameterNumber":3,"parameterNumberName":"V-component_of_WINDS"},"data":[0,0,0,0,0,0,0,0,0,0,0,0,0,0,0,0,0,0,0,0,0,0,0,0,0,0,0,0,0,0,0,0,0,0,0,0,0,0,0,0,0,0,0,0,0,0,0,0,0,0,0,0,0,0,0,0,0,0,3.8124,3.8125,0,3.8158,3.8158,3.8158,3.8172,3.8171,3.8171,3.8171,3.8203,3.8204,3.8205,0,0,0,0,0,0,0,0,0,0,0,0,0,3.8071,3.8072,3.8124,3.8125,3.8125,3.8158,3.8158,3.8158,3.8172,3.8171,3.8171,3.8171,3.8203,3.8204,3.8205,0,0,0,0,0,0,0,0,0,0,0,0,0,3.8098,3.8072,3.8124,3.8136,3.8137,3.8157,3.8158,3.8159,3.8172,3.8171,3.8171,3.8171,3.8202,3.8204,3.8205,3.8216,0,0,3.8209,3.821,0,0,0,0,0,0,0,0,3.8097,3.81,3.8133,3.8135,3.8136,3.816,3.8151,3.8178,3.8172,3.8158,3.8171,3.8171,3.8189,3.8191,3.8198,3.8217,3.8219,3.8209,3.821,3.8211,3.8211,0,0,0,0,0,0,0,3.8095,3.8099,3.8137,3.8134,3.8136,3.8139,3.8143,3.8156,3.8174,3.8159,3.8161,3.8164,3.819,3.8196,3.8199,3.8219,3.8209,3.8211,3.8211,3.8212,3.8253,3.8253,0,0,0,0,0,0,3.8091,3.8097,3.8136,3.8138,3.8116,3.814,3.8144,3.8153,3.8174,3.8177,3.8165,3.8165,3.8194,3.8197,3.82,3.8216,3.8211,3.8212,3.8213,3.8253,3.8253,3.8253,0,0,0,0,0,0,3.809,3.8095,3.8135,3.8118,3.8124,3.8141,3.8151,3.8153,3.816,3.8178,3.8181,3.8168,3.8194,3.8198,3.8213,3.8217,3.8213,3.8214,3.8252,3.8253,3.8253,3.8248,0,0,0,0,0,0,3.8088,3.8094,3.8098,3.8118,3.8124,3.8147,3.8151,3.8154,3.8163,3.8164,3.8182,3.8185,3.8194,3.8211,3.8214,3.8219,3.8215,3.8252,3.8252,3.8253,3.8247,3.8248,3.8248,0,0,0,0,0,3.8087,3.8094,3.8098,3.8103,3.813,3.8148,3.8151,3.8163,3.8163,3.8168,3.8179,3.8184,3.8216,3.8212,3.8216,3.8222,3.8252,3.8252,3.8253,3.8247,3.8248,3.8248,0,0,0,0,0,0,3.8073,3.8097,3.8102,3.8116,3.813,3.815,3.8156,3.8162,3.8175,3.8176,3.8189,3.8193,3.8207,3.8216,3.8211,3.8235,3.8234,3.8236,3.8229,3.8229,3.823,3.8228,3.8216,0,0,0,0,0,3.8072,3.8084,3.8104,3.8115,3.8122,3.8138,3.8146,3.8154,3.8168,3.8174,3.8186,3.82,3.8213,3.8221,3.8234,3.8249,3.8254,3.8255,3.8255,3.8255,3.8256,3.8267,3.8268,3.8255,3.8255,3.8255,0,0,3.8069,3.8084,3.809,3.8113,3.8124,3.8138,3.8142,3.8155,3.8166,3.8175,3.8191,3.8201,3.8217,3.8232,3.824,3.824,3.8261,3.8256,3.8256,3.8257,3.8268,3.8269,3.827,3.8256,3.8255,3.8255,0,0,3.8071,3.8083,3.8094,3.8107,3.8125,3.8136,3.8139,3.8159,3.8166,3.8182,3.8191,3.8203,3.8225,3.8237,3.8246,3.8256,3.8262,3.826,3.8261,3.8272,3.8273,3.8274,3.8279,3.8281,3.8261,3.8261,3.8261,0,3.8065,3.8086,3.8099,3.8113,3.8124,3.8135,3.8147,3.8158,3.8179,3.8186,3.8187,3.8217,3.8228,3.8248,3.8251,3.8257,3.8261,3.8258,3.8272,3.8273,3.8274,3.828,3.8281,3.826,3.8261,3.8261,3.8261,0,3.8079,3.8093,3.81,3.8123,3.8134,3.8147,3.8163,3.8172,3.818,3.8191,3.8209,3.8223,3.8241,3.8246,3.8252,3.8267,3.8267,3.8269,3.8269,3.8275,3.828,3.8282,3.826,3.826,3.826,3.826,0,0,3.8071,3.8104,3.8106,3.8118,3.814,3.8152,3.8166,3.8185,3.8194,3.8208,3.8221,3.8241,3.8244,3.8254,3.8263,3.8272,3.8282,3.8273,3.8274,3.8276,3.8302,3.8301,3.8303,3.8285,3.8286,3.8286,3.8301,0,3.8078,3.8105,3.8119,3.814,3.8155,3.8167,3.818,3.8195,3.8206,3.822,3.8232,3.8247,3.8249,3.8256,3.8265,3.8278,3.8287,3.8277,3.8298,3.8299,3.8296,3.8306,3.8304,3.8318,3.8303,3.8303,3.8304,0,3.8089,3.8106,3.8129,3.8153,3.816,3.8171,3.8191,3.8203,3.8222,3.823,3.8243,3.8251,3.8268,3.8266,3.829,3.8283,3.8292,3.83,3.8301,3.8304,3.8302,3.8311,3.8322,3.8324,3.8307,3.8306,3.8306,0,3.8084,3.8112,3.8131,3.814,3.8168,3.8176,3.8187,3.8206,3.8217,3.8234,3.8242,3.826,3.827,3.8284,3.8298,3.8295,3.8321,3.832,3.8328,3.8328,3.8333,3.8333,3.8348,3.8337,3.8337,3.8337,3.8337,0,3.809,3.8104,3.813,3.8141,3.8158,3.8174,3.819,3.8203,3.8219,3.8234,3.8245,3.8258,3.8275,3.829,3.8301,3.832,3.8324,3.8331,3.8334,3.8331,3.8331,3.8338,3.8338,3.8338,3.8338,3.8337,3.8337,0,3.8087,3.8105,3.8126,3.8152,3.8158,3.817,3.8192,3.8204,3.8216,3.8235,3.824,3.826,3.8279,3.8294,3.8318,3.8326,3.8347,3.8349,3.8341,3.8343,3.8351,3.8351,3.8372,3.8377,3.8362,3.8362,3.8362,0,3.8091,3.8103,3.813,3.8142,3.8154,3.8171,3.8184,3.8201,3.8213,3.8237,3.8247,3.8267,3.8284,3.8314,3.8331,3.835,3.8354,3.836,3.8357,3.8355,3.8357,3.8356,3.8359,3.8361,3.8361,3.8361,3.8361,0,3.8096,3.8105,3.8123,3.8145,3.8161,3.8178,3.8196,3.8204,3.8225,3.8238,3.8259,3.8273,3.83,3.832,3.8342,3.8354,3.8361,3.8362,3.8366,3.8363,3.8359,3.8364,3.8344,3.8362,3.8362,3.8362,3.8362,3.8362,3.8098,3.811,3.8133,3.8153,3.8169,3.8186,3.82,3.8216,3.8234,3.8258,3.8266,3.8288,3.8309,3.8339,3.8351,3.8369,3.837,3.8374,3.8375,3.8376,3.8377,3.8356,3.8373,3.8373,3.8373,3.8373,3.8373,0,3.8105,3.8121,3.814,3.8166,3.8183,3.819,3.8211,3.8225,3.8244,3.8263,3.8281,3.8306,3.8327,3.8346,3.8368,3.8379,3.8383,3.8384,3.8384,3.8387,3.8374,3.837,3.8381,3.8381,3.8381,3.8381,3.8381,3.8381,3.8111,3.8133,3.8145,3.8176,3.8191,3.8214,3.8226,3.8243,3.8258,3.8287,3.8305,3.8318,3.8337,3.8361,3.8381,3.8386,3.8395,3.8395,3.8401,3.8389,3.8388,3.8387,3.8383,3.8396,3.8396,3.8413,3.8413,3.8413]}]]